Weather History for Friday Harbor, WA

Change the Weather History Date:

Monday, October 15, 2012

  Actual Average Record
Temperature  
Mean Temperature 50 °F -  
Max Temperature 59 °F 55 °F 64 °F (2002)
Min Temperature 44 °F 42 °F 34 °F (1999)
Degree Days  
Heating Degree Days 14    
Moisture  
Dew Point 50 °F    
Average Humidity 95    
Maximum Humidity 100    
Minimum Humidity 80    
Precipitation  
Precipitation 0.18 in - - ()
Sea Level Pressure  
Sea Level Pressure 29.75 in    
Wind  
Wind Speed 3 mph (SE)    
Max Wind Speed 17 mph    
Max Gust Speed 24 mph    
Visibility 5 miles    
Events Fog , Rain    
Averages and records for this station are not official NWS values.
T = Trace of Precipitation, MM = Missing Value Source: NWS Daily Summary

Daily Weather History Graph

Daily Weather History Graph

Search for Another Location

Airport:

Trip Planner

Search our weather history database for the weather conditions in past years. The results will help you decide how hot, cold, wet, or windy it might be!

Date:

Astronomy

Oct. 15, 2012 Rise Set
Actual Time 7:32 AM PDT 6:21 PM PDT
Civil Twilight 7:01 AM PDT 6:53 PM PDT
Nautical Twilight 6:24 AM PDT 7:29 PM PDT
Astronomical Twilight 5:48 AM PDT 8:05 PM PDT
Moon 7:55 AM PDT (10/15) 6:17 PM PDT (10/15)
Length of Visible Light 11h 52m
Length of Day
10h 48m
New Moon, 0% of the Moon is Illuminated
Oct 15
New Moon
Oct 21
First Quarter
Oct 29
Full
Nov 6
Last Quarter
Nov 13
New

Hourly Weather History & Observations

Time (PDT) Temp. Dew Point Humidity Pressure Visibility Wind Dir Wind Speed Gust Speed Precip Events Conditions
12:53 AM 50.0 °F 48.9 °F 96% 29.87 in 4.0 mi Calm Calm - N/A   Mostly Cloudy
12:58 AM 50.0 °F 50.0 °F 100% 29.87 in 1.8 mi Calm Calm - N/A   Mostly Cloudy
1:10 AM 50.0 °F 48.2 °F 94% 29.87 in 3.0 mi South 3.5 mph - N/A   Mostly Cloudy
1:17 AM 50.0 °F 48.2 °F 94% 29.88 in 2.0 mi Calm Calm - N/A   Scattered Clouds
1:19 AM 50.0 °F 48.2 °F 94% 29.88 in 1.8 mi Calm Calm - N/A   Mostly Cloudy
1:26 AM 50.0 °F 48.2 °F 94% 29.88 in 2.0 mi Calm Calm - N/A   Scattered Clouds
1:34 AM 48.2 °F 48.2 °F 100% 29.88 in 4.0 mi Calm Calm - N/A   Partly Cloudy
1:53 AM 48.0 °F 46.9 °F 96% 29.89 in 1.2 mi Calm Calm - N/A   Partly Cloudy
1:55 AM 46.4 °F 46.4 °F 100% 29.89 in 0.8 mi Calm Calm - N/A   Mist
2:53 AM 46.0 °F 45.0 °F 96% 29.89 in 0.5 mi Calm Calm - N/A Fog Fog
3:05 AM 44.6 °F 44.6 °F 100% 29.89 in 1.0 mi Calm Calm - N/A   Mist
3:15 AM 44.6 °F 44.6 °F 100% 29.88 in 0.8 mi Calm Calm - N/A   Mist
3:38 AM 46.4 °F 46.4 °F 100% 29.88 in 1.5 mi Calm Calm - N/A   Overcast
3:51 AM 44.6 °F 44.6 °F 100% 29.88 in 0.5 mi Calm Calm - N/A Fog Fog
3:53 AM 44.1 °F 43.0 °F 96% 29.89 in 0.5 mi Calm Calm - N/A Fog Fog
4:53 AM 45.0 °F 45.0 °F 100% 29.91 in 0.2 mi Calm Calm - N/A Fog Fog
5:41 AM 44.6 °F 44.6 °F 100% 29.92 in 1.2 mi Calm Calm - N/A   Overcast
5:51 AM 44.6 °F 42.8 °F 93% 29.92 in 0.5 mi Calm Calm - N/A Fog Fog
5:53 AM 44.1 °F 43.0 °F 96% 29.92 in 0.8 mi Calm Calm - N/A   Mist
6:53 AM 46.0 °F 46.0 °F 100% 29.92 in 0.2 mi Calm Calm - N/A Fog Fog
7:53 AM 46.9 °F 46.9 °F 100% 29.93 in 0.2 mi Calm Calm - N/A Fog Fog
8:53 AM 48.9 °F 48.0 °F 97% 29.94 in 0.2 mi Calm Calm - N/A Fog Fog
9:53 AM 50.0 °F 50.0 °F 100% 29.91 in 0.5 mi Calm Calm - N/A Fog Fog
10:01 AM 51.8 °F 51.8 °F 100% 29.91 in 2.5 mi ESE 3.5 mph - N/A   Overcast
10:08 AM 51.8 °F 51.8 °F 100% 29.90 in 6.0 mi East 3.5 mph - N/A   Mostly Cloudy
10:19 AM 51.8 °F 51.8 °F 100% 29.90 in 9.0 mi East 3.5 mph - N/A   Mostly Cloudy
10:28 AM 53.6 °F 51.8 °F 94% 29.89 in 9.0 mi ESE 3.5 mph - N/A   Mostly Cloudy
10:53 AM 54.0 °F 52.0 °F 93% 29.89 in 8.0 mi ESE 3.5 mph - N/A   Overcast
11:53 AM 54.0 °F 52.0 °F 93% 29.84 in 10.0 mi East 9.2 mph - N/A   Overcast
12:11 PM 55.4 °F 51.8 °F 88% 29.84 in 10.0 mi ESE 6.9 mph - N/A   Overcast
12:53 PM 54.0 °F 50.0 °F 86% 29.83 in 10.0 mi East 12.7 mph - N/A   Overcast
1:43 PM 55.4 °F 51.8 °F 88% 29.75 in 10.0 mi East 8.1 mph - N/A   Mostly Cloudy
1:53 PM 55.0 °F 51.1 °F 86% 29.74 in 10.0 mi East 8.1 mph - N/A   Mostly Cloudy
2:53 PM 55.0 °F 51.1 °F 86% 29.70 in 7.0 mi ESE 9.2 mph - 0.00 in Rain Light Rain
3:19 PM 55.4 °F 51.8 °F 88% 29.66 in 8.0 mi ESE 10.4 mph - 0.00 in Rain Light Rain
3:53 PM 55.0 °F 52.0 °F 89% 29.65 in 10.0 mi ESE 9.2 mph - 0.00 in Rain Light Rain
4:14 PM 53.6 °F 51.8 °F 94% 29.61 in 2.5 mi ESE 8.1 mph - 0.04 in Rain Rain
4:45 PM 53.6 °F 51.8 °F 94% 29.60 in 2.0 mi SE 8.1 mph - 0.14 in Rain Rain
4:49 PM 53.6 °F 51.8 °F 94% 29.59 in 2.0 mi SE 8.1 mph - 0.16 in Rain Rain
4:53 PM 53.1 °F 52.0 °F 96% 29.57 in 2.0 mi ESE 10.4 mph - 0.16 in Rain Rain
5:09 PM 51.8 °F 51.8 °F 100% 29.54 in 1.8 mi East 11.5 mph - 0.01 in Rain Light Rain
5:17 PM 53.6 °F 51.8 °F 94% 29.53 in 2.0 mi ESE 11.5 mph - 0.01 in Rain Light Rain
5:26 PM 53.6 °F 53.6 °F 100% 29.53 in 5.0 mi SE 8.1 mph - 0.01 in   Overcast
5:53 PM 54.0 °F 53.1 °F 97% 29.50 in 4.0 mi SE 10.4 mph - 0.02 in Rain Light Rain
6:25 PM 55.4 °F 55.4 °F 100% 29.48 in 10.0 mi ESE 17.3 mph 24.2 mph 0.00 in Rain Light Rain
6:53 PM 55.9 °F 54.0 °F 93% 29.48 in 10.0 mi SE 12.7 mph - 0.00 in   Unknown
7:13 PM 57.2 °F 55.4 °F 94% 29.49 in 10.0 mi SSE 9.2 mph 16.1 mph 0.00 in Rain Light Rain
7:23 PM 57.2 °F 55.4 °F 94% 29.49 in 9.0 mi SSE 13.8 mph 23.0 mph 0.00 in Rain Light Rain
7:53 PM 57.0 °F 55.0 °F 93% 29.49 in 10.0 mi SSE 11.5 mph 19.6 mph 0.00 in   Overcast
8:17 PM 55.4 °F 55.4 °F 100% 29.49 in 10.0 mi SSE 12.7 mph 18.4 mph N/A   Overcast
8:53 PM 57.9 °F 55.0 °F 90% 29.50 in 10.0 mi Variable 6.9 mph - N/A   Overcast
9:16 PM 57.2 °F 55.4 °F 94% 29.50 in 10.0 mi SSW 11.5 mph 20.7 mph N/A   Overcast
9:53 PM 55.0 °F 53.1 °F 93% 29.49 in 10.0 mi SW 8.1 mph - N/A   Clear
10:53 PM 55.9 °F 50.0 °F 80% 29.51 in 10.0 mi WSW 9.2 mph 17.3 mph N/A   Clear
11:53 PM 55.0 °F 48.9 °F 80% 29.54 in 10.0 mi SSW 9.2 mph - N/A   Clear